Content
SEND FEEDBACK

Daily
Averages
Monthly
Summary
Brazil

SÃO PAULO, SÃO PAULO


Home > South America > Brazil > São Paulo
Elevation: 2634 feet     Latitude: 23 37S     Longitude: 046 39W

WEATHER
 
SELECT A DAY
Number of Records: 162,159;   Date Range: 6/30/96 - 11/22/14
 
SHARE

PRINT THIS DATA

[ ← Previous Day ]
WEATHER ALMANAC - FEBRUARY 3, 2013
[ Next Day → ]
[ °C ]   °F
Weather ElementAverageHighLow
Temperature73.1 °F78.8 °F (2:00 pm)69.8 °F (6:00 am)
Dewpoint62.3 °F64.4 °F (10:00 am)60 °F (4:00 pm)
Humidity68 %78 % (6:00 am)51 % (4:00 pm)
Barometer29.96 in30.06 in (1:00 am)29.89 in (5:00 pm)
Wind Speed11.1 mph18.4 mph (10:00 am)
Wind Gust29.9 mph (2:00 pm)
Weather ElementAverage
Visibility7.5 mi
Wind DirectionW (273 °)

Weather ElementTotal
Precipitation---
Cooling Degree Days9.3 (Base 65)
Growing Degree Days24.3 (Base 50)
Averaged from 27 records on February 3, 2013
WEATHER CONDITIONS BREAKOUT
WIND DIRECTION BREAKOUT
WEATHER BY HOUR - FEBRUARY 3, 2013
[ °C ]   °F
Local TimeTemperatureDewpointHumidityBarometerVisibilityWind DirectionWind SpeedGust SpeedPrecipitationEventsConditions
1:00 AM71.6 °F62.6 °F73 %30.06 inNE (40°)8.1 mphClear
2:00 AM71.6 °F62.6 °F73 %30.04 inNorth (360°)6.9 mphClear
3:00 AM71.6 °F62.6 °F73 %30.01 inNNE (30°)6.9 mphClear
4:00 AM71.0 °F63.0 °F68 %12.0 miNNE (30°)5.8 mphPartly Cloudy
4:00 AM71.6 °F62.6 °F73 %29.98 inNNE (30°)5.8 mphClear
5:00 AM71.6 °F62.6 °F73 %29.95 inNorth (360°)8.1 mphClear
6:00 AM69.8 °F62.6 °F78 %29.98 inNW (310°)5.8 mphClear
7:00 AM69.8 °F62.6 °F78 %29.98 inNW (320°)13.8 mphClear
8:00 AM71.6 °F62.6 °F73 %30.01 inNW (310°)9.2 mphClear
9:00 AM73.4 °F62.6 °F69 %30.01 inNNW (340°)15.0 mphClear
10:00 AM73.0 °F64.0 °F65 %12.0 miNNW (330°)18.4 mphOvercast
10:00 AM73.4 °F64.4 °F73 %30.01 in6.2 miNNW (330°)18.4 mphMostly Cloudy
11:00 AM73.4 °F62.6 °F69 %30.01 in6.2 miNNW (330°)13.8 mph28.8 mphScattered Clouds
12:00 PM75.2 °F62.6 °F65 %29.98 in6.2 miNW (320°)13.8 mph25.3 mphMostly Cloudy
1:00 PM77.0 °F60.8 °F57 %29.95 in6.2 miNNW (330°)16.1 mph27.6 mphScattered Clouds
2:00 PM78.8 °F60.8 °F54 %29.92 in6.2 miNW (310°)15.0 mph29.9 mphScattered Clouds
3:00 PM75.2 °F60.8 °F61 %29.92 in6.2 miNW (320°)15.0 mph28.8 mphScattered Clouds
4:00 PM75.0 °F60.0 °F51 %12.0 miWNW (300°)13.8 mphOvercast
4:00 PM75.2 °F60.8 °F61 %29.92 in6.2 miWNW (300°)13.8 mph27.6 mphScattered Clouds
5:00 PM75.2 °F60.8 °F61 %29.89 in6.2 miWNW (300°)12.7 mph27.6 mphScattered Clouds
6:00 PM73.4 °F60.8 °F65 %29.89 in6.2 miNW (310°)16.1 mphScattered Clouds
7:00 PM75.2 °F60.8 °F61 %29.89 in6.2 miNW (320°)12.7 mphScattered Clouds
8:00 PM73.4 °F60.8 °F65 %29.89 in6.2 miNW (310°)15.0 mphScattered Clouds
9:00 PM71.6 °F62.6 °F73 %29.92 in6.2 miWNW (290°)6.9 mphRainLight Rain
10:00 PM72.0 °F64.0 °F68 %12.0 miWNW (290°)4.6 mphRainLight Rain
10:00 PM71.6 °F64.4 °F78 %29.92 in6.2 miWNW (290°)4.6 mphThunderstormPartly Cloudy
11:00 PM71.6 °F64.4 °F78 %29.92 in6.2 miWest (260°)3.5 mphRainLight Rain
Hourly data recorded from SBSP, located miles away from São Paulo, São Paulo







STORIES FROM OUR PARTNERS